Year,Month,Day,Hour,Minute,Value (Times are PST for temperature in C)
2005,09,20,00,00,12.40
2005,09,20,00,01,12.40
2005,09,20,00,02,12.40
2005,09,20,00,03,12.40
2005,09,20,00,04,12.40
2005,09,20,00,05,12.40
2005,09,20,00,06,12.40
2005,09,20,00,07,12.40
2005,09,20,00,08,12.40
2005,09,20,00,09,12.40
2005,09,20,00,10,12.40
2005,09,20,00,11,12.40
2005,09,20,00,12,12.40
2005,09,20,00,13,12.40
2005,09,20,00,14,12.40
2005,09,20,00,15,12.40
2005,09,20,00,16,12.40
2005,09,20,00,17,12.40
2005,09,20,00,18,12.40
2005,09,20,00,19,12.40
2005,09,20,00,20,12.40
2005,09,20,00,21,12.40
2005,09,20,00,22,12.40
2005,09,20,00,23,12.40
2005,09,20,00,24,12.40
2005,09,20,00,25,12.40
2005,09,20,00,26,12.40
2005,09,20,00,27,12.40
2005,09,20,00,28,12.40
2005,09,20,00,29,12.30
2005,09,20,00,30,12.30
2005,09,20,00,31,12.30
2005,09,20,00,32,12.30
2005,09,20,00,33,12.30
2005,09,20,00,34,12.30
2005,09,20,00,35,12.30
2005,09,20,00,36,12.30
2005,09,20,00,37,12.30
2005,09,20,00,38,12.30
2005,09,20,00,39,12.30
2005,09,20,00,40,12.30
2005,09,20,00,41,12.30
2005,09,20,00,42,12.30
2005,09,20,00,43,12.30
2005,09,20,00,44,12.30
2005,09,20,00,45,12.30
2005,09,20,00,46,12.40
2005,09,20,00,47,12.40
2005,09,20,00,48,12.40
2005,09,20,00,49,12.40
2005,09,20,00,50,12.40
2005,09,20,00,51,12.40
2005,09,20,00,52,12.40
2005,09,20,00,53,12.50
2005,09,20,00,54,12.50
2005,09,20,00,55,12.50
2005,09,20,00,56,12.50
2005,09,20,00,57,12.50
2005,09,20,00,58,12.50
2005,09,20,00,59,12.50
2005,09,20,01,00,12.50
2005,09,20,01,01,12.50
2005,09,20,01,02,12.50
2005,09,20,01,03,12.50
2005,09,20,01,04,12.50
2005,09,20,01,05,12.50
2005,09,20,01,06,12.50
2005,09,20,01,07,12.50
2005,09,20,01,08,12.50
2005,09,20,01,09,12.50
2005,09,20,01,10,12.50
2005,09,20,01,11,12.50
2005,09,20,01,12,12.50
2005,09,20,01,13,12.50
2005,09,20,01,14,12.50
2005,09,20,01,15,12.50
2005,09,20,01,16,12.40
2005,09,20,01,17,12.40
2005,09,20,01,18,12.40
2005,09,20,01,19,12.40
2005,09,20,01,20,12.40
2005,09,20,01,21,12.40
2005,09,20,01,22,12.40
2005,09,20,01,23,12.30
2005,09,20,01,24,12.30
2005,09,20,01,25,12.30
2005,09,20,01,26,12.30
2005,09,20,01,27,12.30
2005,09,20,01,28,12.30
2005,09,20,01,29,12.30
2005,09,20,01,30,12.30
2005,09,20,01,31,12.30
2005,09,20,01,32,12.30
2005,09,20,01,33,12.30
2005,09,20,01,34,12.20
2005,09,20,01,35,12.20
2005,09,20,01,36,12.20
2005,09,20,01,37,12.20
2005,09,20,01,38,12.20
2005,09,20,01,39,12.20
2005,09,20,01,40,12.20
2005,09,20,01,41,12.20
2005,09,20,01,42,12.10
2005,09,20,01,43,12.10
2005,09,20,01,44,12.10
2005,09,20,01,45,12.10
2005,09,20,01,46,12.00
2005,09,20,01,47,12.00
2005,09,20,01,48,12.00
2005,09,20,01,49,12.00
2005,09,20,01,50,12.00
2005,09,20,01,51,12.00
2005,09,20,01,52,11.90
2005,09,20,01,53,11.90
2005,09,20,01,54,11.90
2005,09,20,01,55,11.90
2005,09,20,01,56,11.90
2005,09,20,01,57,11.80
2005,09,20,01,58,11.80
2005,09,20,01,59,11.80
2005,09,20,02,00,11.80
2005,09,20,02,01,11.80
2005,09,20,02,02,11.80
2005,09,20,02,03,11.70
2005,09,20,02,04,11.70
2005,09,20,02,05,11.70
2005,09,20,02,06,11.60
2005,09,20,02,07,11.60
2005,09,20,02,08,11.60
2005,09,20,02,09,11.60
2005,09,20,02,10,11.60
2005,09,20,02,11,11.60
2005,09,20,02,12,11.60
2005,09,20,02,13,11.60
2005,09,20,02,14,11.60
2005,09,20,02,15,11.60
2005,09,20,02,16,11.60
2005,09,20,02,17,11.60
2005,09,20,02,18,11.60
2005,09,20,02,19,11.60
2005,09,20,02,20,11.60
2005,09,20,02,21,11.60
2005,09,20,02,22,11.50
2005,09,20,02,23,11.40
2005,09,20,02,24,11.40
2005,09,20,02,25,11.40
2005,09,20,02,26,11.40
2005,09,20,02,27,11.40
2005,09,20,02,28,11.40
2005,09,20,02,29,11.40
2005,09,20,02,30,11.40
2005,09,20,02,31,11.40
2005,09,20,02,32,11.40
2005,09,20,02,33,11.40
2005,09,20,02,34,11.30
2005,09,20,02,35,11.20
2005,09,20,02,36,11.20
2005,09,20,02,37,11.10
2005,09,20,02,38,11.10
2005,09,20,02,39,11.10
2005,09,20,02,40,11.10
2005,09,20,02,41,11.00
2005,09,20,02,42,10.90
2005,09,20,02,43,10.90
2005,09,20,02,44,10.90
2005,09,20,02,45,10.90
2005,09,20,02,46,10.90
2005,09,20,02,47,10.90
2005,09,20,02,48,10.90
2005,09,20,02,49,10.90
2005,09,20,02,50,10.90
2005,09,20,02,51,10.80
2005,09,20,02,52,10.80
2005,09,20,02,53,10.80
2005,09,20,02,54,10.80
2005,09,20,02,55,10.80
2005,09,20,02,56,10.70
2005,09,20,02,57,10.70
2005,09,20,02,58,10.70
2005,09,20,02,59,10.60
2005,09,20,03,00,10.60
2005,09,20,03,01,10.60
2005,09,20,03,02,10.60
2005,09,20,03,03,10.50
2005,09,20,03,04,10.40
2005,09,20,03,05,10.40
2005,09,20,03,06,10.30
2005,09,20,03,07,10.30
2005,09,20,03,08,10.30
2005,09,20,03,09,10.20
2005,09,20,03,10,10.20
2005,09,20,03,11,10.20
2005,09,20,03,12,10.20
2005,09,20,03,13,10.20
2005,09,20,03,14,10.20
2005,09,20,03,15,10.20
2005,09,20,03,16,10.20
2005,09,20,03,17,10.20
2005,09,20,03,18,10.20
2005,09,20,03,19,10.20
2005,09,20,03,20,10.30
2005,09,20,03,21,10.30
2005,09,20,03,22,10.30
2005,09,20,03,23,10.40
2005,09,20,03,24,10.40
2005,09,20,03,25,10.40
2005,09,20,03,26,10.40
2005,09,20,03,27,10.40
2005,09,20,03,28,10.30
2005,09,20,03,29,10.30
2005,09,20,03,30,10.30
2005,09,20,03,31,10.30
2005,09,20,03,32,10.20
2005,09,20,03,33,10.20
2005,09,20,03,34,10.20
2005,09,20,03,35,10.20
2005,09,20,03,36,10.10
2005,09,20,03,37,10.10
2005,09,20,03,38,10.10
2005,09,20,03,39,10.10
2005,09,20,03,40,10.20
2005,09,20,03,41,10.20
2005,09,20,03,42,10.20
2005,09,20,03,43,10.20
2005,09,20,03,44,10.30
2005,09,20,03,45,10.30
2005,09,20,03,46,10.40
2005,09,20,03,47,10.40
2005,09,20,03,48,10.40
2005,09,20,03,49,10.50
2005,09,20,03,50,10.60
2005,09,20,03,51,10.60
2005,09,20,03,52,10.60
2005,09,20,03,53,10.60
2005,09,20,03,54,10.60
2005,09,20,03,55,10.60
2005,09,20,03,56,10.60
2005,09,20,03,57,10.60
2005,09,20,03,58,10.60
2005,09,20,03,59,10.60
2005,09,20,04,00,10.60
2005,09,20,04,01,10.60
2005,09,20,04,02,10.60
2005,09,20,04,03,10.60
2005,09,20,04,04,10.60
2005,09,20,04,05,10.60
2005,09,20,04,06,10.60
2005,09,20,04,07,10.60
2005,09,20,04,08,10.50
2005,09,20,04,09,10.40
2005,09,20,04,10,10.40
2005,09,20,04,11,10.40
2005,09,20,04,12,10.30
2005,09,20,04,13,10.30
2005,09,20,04,14,10.20
2005,09,20,04,15,10.20
2005,09,20,04,16,10.20
2005,09,20,04,17,10.10
2005,09,20,04,18,10.10
2005,09,20,04,19,10.10
2005,09,20,04,20,10.10
2005,09,20,04,21,10.00
2005,09,20,04,22,9.90
2005,09,20,04,23,9.90
2005,09,20,04,24,9.90
2005,09,20,04,25,9.80
2005,09,20,04,26,9.80
2005,09,20,04,27,9.80
2005,09,20,04,28,9.80
2005,09,20,04,29,9.70
2005,09,20,04,30,9.70
2005,09,20,04,31,9.70
2005,09,20,04,32,9.60
2005,09,20,04,33,9.60
2005,09,20,04,34,9.50
2005,09,20,04,35,9.50
2005,09,20,04,36,9.50
2005,09,20,04,37,9.40
2005,09,20,04,38,9.40
2005,09,20,04,39,9.30
2005,09,20,04,40,9.30
2005,09,20,04,41,9.30
2005,09,20,04,42,9.20
2005,09,20,04,43,9.20
2005,09,20,04,44,9.20
2005,09,20,04,45,9.20
2005,09,20,04,46,9.10
2005,09,20,04,47,9.10
2005,09,20,04,48,9.10
2005,09,20,04,49,9.00
2005,09,20,04,50,9.00
2005,09,20,04,51,9.00
2005,09,20,04,52,9.00
2005,09,20,04,53,9.00
2005,09,20,04,54,8.90
2005,09,20,04,55,8.90
2005,09,20,04,56,8.90
2005,09,20,04,57,8.90
2005,09,20,04,58,8.90
2005,09,20,04,59,8.90
2005,09,20,05,00,8.90
2005,09,20,05,01,8.90
2005,09,20,05,02,8.90
2005,09,20,05,03,9.00
2005,09,20,05,04,9.00
2005,09,20,05,05,9.00
2005,09,20,05,06,9.00
2005,09,20,05,07,9.10
2005,09,20,05,08,9.10
2005,09,20,05,09,9.10
2005,09,20,05,10,9.20
2005,09,20,05,11,9.20
2005,09,20,05,12,9.20
2005,09,20,05,13,9.20
2005,09,20,05,14,9.20
2005,09,20,05,15,9.20
2005,09,20,05,16,9.20
2005,09,20,05,17,9.20
2005,09,20,05,18,9.20
2005,09,20,05,19,9.20
2005,09,20,05,20,9.20
2005,09,20,05,21,9.20
2005,09,20,05,22,9.10
2005,09,20,05,23,9.00
2005,09,20,05,24,9.00
2005,09,20,05,25,8.90
2005,09,20,05,26,8.90
2005,09,20,05,27,8.80
2005,09,20,05,28,8.80
2005,09,20,05,29,8.70
2005,09,20,05,30,8.70
2005,09,20,05,31,8.70
2005,09,20,05,32,8.70
2005,09,20,05,33,8.70
2005,09,20,05,34,8.70
2005,09,20,05,35,8.70
2005,09,20,05,36,8.70
2005,09,20,05,37,8.70
2005,09,20,05,38,8.70
2005,09,20,05,39,8.70
2005,09,20,05,40,8.70
2005,09,20,05,41,8.70
2005,09,20,05,42,8.70
2005,09,20,05,43,8.70
2005,09,20,05,44,8.80
2005,09,20,05,45,8.80
2005,09,20,05,46,8.80
2005,09,20,05,47,8.90
2005,09,20,05,48,8.90
2005,09,20,05,49,8.90
2005,09,20,05,50,8.90
2005,09,20,05,51,8.90
2005,09,20,05,52,8.90
2005,09,20,05,53,8.90
2005,09,20,05,54,8.90
2005,09,20,05,55,8.80
2005,09,20,05,56,8.80
2005,09,20,05,57,8.80
2005,09,20,05,58,8.80
2005,09,20,05,59,8.70
2005,09,20,06,00,8.70
2005,09,20,06,01,8.70
2005,09,20,06,02,8.70
2005,09,20,06,03,8.70
2005,09,20,06,04,8.70
2005,09,20,06,05,8.70
2005,09,20,06,06,8.70
2005,09,20,06,07,8.70
2005,09,20,06,08,8.70
2005,09,20,06,09,8.70
2005,09,20,06,10,8.70
2005,09,20,06,11,8.70
2005,09,20,06,12,8.60
2005,09,20,06,13,8.60
2005,09,20,06,14,8.60
2005,09,20,06,15,8.60
2005,09,20,06,16,8.60
2005,09,20,06,17,8.60
2005,09,20,06,18,8.50
2005,09,20,06,19,8.50
2005,09,20,06,20,8.60
2005,09,20,06,21,8.60
2005,09,20,06,22,8.60
2005,09,20,06,23,8.60
2005,09,20,06,24,8.60
2005,09,20,06,25,8.60
2005,09,20,06,26,8.60
2005,09,20,06,27,8.60
2005,09,20,06,28,8.60
2005,09,20,06,29,8.70
2005,09,20,06,30,8.70
2005,09,20,06,31,8.80
2005,09,20,06,32,8.90
2005,09,20,06,33,9.00
2005,09,20,06,34,9.00
2005,09,20,06,35,8.90
2005,09,20,06,36,8.90
2005,09,20,06,37,8.80
2005,09,20,06,38,8.70
2005,09,20,06,39,8.70
2005,09,20,06,40,8.70
2005,09,20,06,41,8.70
2005,09,20,06,42,8.70
2005,09,20,06,43,8.70
2005,09,20,06,44,8.70
2005,09,20,06,45,8.70
2005,09,20,06,46,8.70
2005,09,20,06,47,8.70
2005,09,20,06,48,8.70
2005,09,20,06,49,8.60
2005,09,20,06,50,8.60
2005,09,20,06,51,8.50
2005,09,20,06,52,8.50
2005,09,20,06,53,8.50
2005,09,20,06,54,8.40
2005,09,20,06,55,8.30
2005,09,20,06,56,8.30
2005,09,20,06,57,8.20
2005,09,20,06,58,8.20
2005,09,20,06,59,8.20
2005,09,20,07,00,8.20
2005,09,20,07,01,8.20
2005,09,20,07,02,8.10
2005,09,20,07,03,8.10
2005,09,20,07,04,8.10
2005,09,20,07,05,8.00
2005,09,20,07,06,8.00
2005,09,20,07,07,8.00
2005,09,20,07,08,8.00
2005,09,20,07,09,7.90
2005,09,20,07,10,7.90
2005,09,20,07,11,7.90
2005,09,20,07,12,7.90
2005,09,20,07,13,7.90
2005,09,20,07,14,7.90
2005,09,20,07,15,7.90
2005,09,20,07,16,7.90
2005,09,20,07,17,7.90
2005,09,20,07,18,7.80
2005,09,20,07,19,7.80
2005,09,20,07,20,7.80
2005,09,20,07,21,7.80
2005,09,20,07,22,7.80
2005,09,20,07,23,7.90
2005,09,20,07,24,7.90
2005,09,20,07,25,7.90
2005,09,20,07,26,7.90
2005,09,20,07,27,8.00
2005,09,20,07,28,8.00
2005,09,20,07,29,8.00
2005,09,20,07,30,8.00
2005,09,20,07,31,8.00
2005,09,20,07,32,8.10
2005,09,20,07,33,8.10
2005,09,20,07,34,8.20
2005,09,20,07,35,8.20
2005,09,20,07,36,8.20
2005,09,20,07,37,8.20
2005,09,20,07,38,8.30
2005,09,20,07,39,8.40
2005,09,20,07,40,8.40
2005,09,20,07,41,8.50
2005,09,20,07,42,8.50
2005,09,20,07,43,8.60
2005,09,20,07,44,8.60
2005,09,20,07,45,8.70
2005,09,20,07,46,8.70
2005,09,20,07,47,8.70
2005,09,20,07,48,8.80
2005,09,20,07,49,8.80
2005,09,20,07,50,8.90
2005,09,20,07,51,9.00
2005,09,20,07,52,9.10
2005,09,20,07,53,9.20
2005,09,20,07,54,9.40
2005,09,20,07,55,9.50
2005,09,20,07,56,9.60
2005,09,20,07,57,9.70
2005,09,20,07,58,9.80
2005,09,20,07,59,9.90
2005,09,20,08,00,10.10
2005,09,20,08,01,10.20
2005,09,20,08,02,10.30
2005,09,20,08,03,10.40
2005,09,20,08,04,10.50
2005,09,20,08,05,10.60
2005,09,20,08,06,10.70
2005,09,20,08,07,10.90
2005,09,20,08,08,11.00
2005,09,20,08,09,11.10
2005,09,20,08,10,11.20
2005,09,20,08,11,11.40
2005,09,20,08,12,11.50
2005,09,20,08,13,11.60
2005,09,20,08,14,11.60
2005,09,20,08,15,11.60
2005,09,20,08,16,11.80
2005,09,20,08,17,11.90
2005,09,20,08,18,12.00
2005,09,20,08,19,12.20
2005,09,20,08,20,12.30
2005,09,20,08,21,12.50
2005,09,20,08,22,12.50
2005,09,20,08,23,12.60
2005,09,20,08,24,12.70
2005,09,20,08,25,12.80
2005,09,20,08,26,13.00
2005,09,20,08,27,13.10
2005,09,20,08,28,13.30
2005,09,20,08,29,13.40
2005,09,20,08,30,13.60
2005,09,20,08,31,13.70
2005,09,20,08,32,13.80
2005,09,20,08,33,13.90
2005,09,20,08,34,14.00
2005,09,20,08,35,14.10
2005,09,20,08,36,14.20
2005,09,20,08,37,14.20
2005,09,20,08,38,14.30
2005,09,20,08,39,14.40
2005,09,20,08,40,14.50
2005,09,20,08,41,14.50
2005,09,20,08,42,14.50
2005,09,20,08,43,14.50
2005,09,20,08,44,14.60
2005,09,20,08,45,14.60
2005,09,20,08,46,14.70
2005,09,20,08,47,14.70
2005,09,20,08,48,14.70
2005,09,20,08,49,14.80
2005,09,20,08,50,14.80
2005,09,20,08,51,14.80
2005,09,20,08,52,14.80
2005,09,20,08,53,14.90
2005,09,20,08,54,14.90
2005,09,20,08,55,14.90
2005,09,20,08,56,14.90
2005,09,20,08,57,15.00
2005,09,20,08,58,15.00
2005,09,20,08,59,15.00
2005,09,20,09,00,15.10
2005,09,20,09,01,15.10
2005,09,20,09,02,15.10
2005,09,20,09,03,15.00
2005,09,20,09,04,14.70
2005,09,20,09,05,14.30
2005,09,20,09,06,14.00
2005,09,20,09,07,13.80
2005,09,20,09,08,13.70
2005,09,20,09,09,13.60
2005,09,20,09,10,13.50
2005,09,20,09,11,13.40
2005,09,20,09,12,13.30
2005,09,20,09,13,13.30
2005,09,20,09,14,13.20
2005,09,20,09,15,13.20
2005,09,20,09,16,13.20
2005,09,20,09,17,13.10
2005,09,20,09,18,13.20
2005,09,20,09,19,13.20
2005,09,20,09,20,13.40
2005,09,20,09,21,13.50
2005,09,20,09,22,13.60
2005,09,20,09,23,13.70
2005,09,20,09,24,13.80
2005,09,20,09,25,13.90
2005,09,20,09,26,14.00
2005,09,20,09,27,14.20
2005,09,20,09,28,14.20
2005,09,20,09,29,14.30
2005,09,20,09,30,14.40
2005,09,20,09,31,14.40
2005,09,20,09,32,14.50
2005,09,20,09,33,14.60
2005,09,20,09,34,14.60
2005,09,20,09,35,14.60
2005,09,20,09,36,14.60
2005,09,20,09,37,14.60
2005,09,20,09,38,14.60
2005,09,20,09,39,14.60
2005,09,20,09,40,14.60
2005,09,20,09,41,14.60
2005,09,20,09,42,14.60
2005,09,20,09,43,14.60
2005,09,20,09,44,14.60
2005,09,20,09,45,14.60
2005,09,20,09,46,14.70
2005,09,20,09,47,14.80
2005,09,20,09,48,14.80
2005,09,20,09,49,14.90
2005,09,20,09,50,15.00
2005,09,20,09,51,15.10
2005,09,20,09,52,15.20
2005,09,20,09,53,15.20
2005,09,20,09,54,15.30
2005,09,20,09,55,15.30
2005,09,20,09,56,15.30
2005,09,20,09,57,15.40
2005,09,20,09,58,15.40
2005,09,20,09,59,15.50
2005,09,20,10,00,15.60
2005,09,20,10,01,15.60
2005,09,20,10,02,15.70
2005,09,20,10,03,15.70
2005,09,20,10,04,15.70
2005,09,20,10,05,15.60
2005,09,20,10,06,15.60
2005,09,20,10,07,15.70
2005,09,20,10,08,15.70
2005,09,20,10,09,15.80
2005,09,20,10,10,15.80
2005,09,20,10,11,15.80
2005,09,20,10,12,15.80
2005,09,20,10,13,15.80
2005,09,20,10,14,15.80
2005,09,20,10,15,15.80
2005,09,20,10,16,15.80
2005,09,20,10,17,15.80
2005,09,20,10,18,15.70
2005,09,20,10,19,15.60
2005,09,20,10,20,15.50
2005,09,20,10,21,15.40
2005,09,20,10,22,15.30
2005,09,20,10,23,15.30
2005,09,20,10,24,15.20
2005,09,20,10,25,15.20
2005,09,20,10,26,15.20
2005,09,20,10,27,15.30
2005,09,20,10,28,15.40
2005,09,20,10,29,15.50
2005,09,20,10,30,15.60
2005,09,20,10,31,15.60
2005,09,20,10,32,15.70
2005,09,20,10,33,15.80
2005,09,20,10,34,15.80
2005,09,20,10,35,15.80
2005,09,20,10,36,15.90
2005,09,20,10,37,16.00
2005,09,20,10,38,16.10
2005,09,20,10,39,16.10
2005,09,20,10,40,16.10
2005,09,20,10,41,16.20
2005,09,20,10,42,16.30
2005,09,20,10,43,16.30
2005,09,20,10,44,16.30
2005,09,20,10,45,16.30
2005,09,20,10,46,16.30
2005,09,20,10,47,16.20
2005,09,20,10,48,15.90
2005,09,20,10,49,15.80
2005,09,20,10,50,15.60
2005,09,20,10,51,15.60
2005,09,20,10,52,15.60
2005,09,20,10,53,15.70
2005,09,20,10,54,15.70
2005,09,20,10,55,15.80
2005,09,20,10,56,15.70
2005,09,20,10,57,15.80
2005,09,20,10,58,15.80
2005,09,20,10,59,15.80
2005,09,20,11,00,15.80
2005,09,20,11,01,15.70
2005,09,20,11,02,15.70
2005,09,20,11,03,15.60
2005,09,20,11,04,15.70
2005,09,20,11,05,15.70
2005,09,20,11,06,15.70
2005,09,20,11,07,15.60
2005,09,20,11,08,15.40
2005,09,20,11,09,15.30
2005,09,20,11,10,15.10
2005,09,20,11,11,15.00
2005,09,20,11,12,15.00
2005,09,20,11,13,15.10
2005,09,20,11,14,15.20
2005,09,20,11,15,15.20
2005,09,20,11,16,15.20
2005,09,20,11,17,15.20
2005,09,20,11,18,15.30
2005,09,20,11,19,15.30
2005,09,20,11,20,15.40
2005,09,20,11,21,15.50
2005,09,20,11,22,15.60
2005,09,20,11,23,15.50
2005,09,20,11,24,15.40
2005,09,20,11,25,15.40
2005,09,20,11,26,15.40
2005,09,20,11,27,15.40
2005,09,20,11,28,15.40
2005,09,20,11,29,15.30
2005,09,20,11,30,15.30
2005,09,20,11,31,15.40
2005,09,20,11,32,15.40
2005,09,20,11,33,15.50
2005,09,20,11,34,15.40
2005,09,20,11,35,15.30
2005,09,20,11,36,15.20
2005,09,20,11,37,15.10
2005,09,20,11,38,15.10
2005,09,20,11,39,15.00
2005,09,20,11,40,15.00
2005,09,20,11,41,15.00
2005,09,20,11,42,15.00
2005,09,20,11,43,15.20
2005,09,20,11,44,15.40
2005,09,20,11,45,15.50
2005,09,20,11,46,15.60
2005,09,20,11,47,15.70
2005,09,20,11,48,15.60
2005,09,20,11,49,15.60
2005,09,20,11,50,15.50
2005,09,20,11,51,15.40
2005,09,20,11,52,15.40
2005,09,20,11,53,15.30
2005,09,20,11,54,15.40
2005,09,20,11,55,15.50
2005,09,20,11,56,15.70
2005,09,20,11,57,15.80
2005,09,20,11,58,15.90
2005,09,20,11,59,15.90
2005,09,20,12,00,15.80
2005,09,20,12,01,15.80
2005,09,20,12,02,15.70
2005,09,20,12,03,15.40
2005,09,20,12,04,15.30
2005,09,20,12,05,15.20
2005,09,20,12,06,15.20
2005,09,20,12,07,15.20
2005,09,20,12,08,15.30
2005,09,20,12,09,15.30
2005,09,20,12,10,15.30
2005,09,20,12,11,15.20
2005,09,20,12,12,15.20
2005,09,20,12,13,15.00
2005,09,20,12,14,14.80
2005,09,20,12,15,15.00
2005,09,20,12,16,15.10
2005,09,20,12,17,15.30
2005,09,20,12,18,15.50
2005,09,20,12,19,15.60
2005,09,20,12,20,15.70
2005,09,20,12,21,15.80
2005,09,20,12,22,15.90
2005,09,20,12,23,16.00
2005,09,20,12,24,15.90
2005,09,20,12,25,15.80
2005,09,20,12,26,15.60
2005,09,20,12,27,15.50
2005,09,20,12,28,15.40
2005,09,20,12,29,15.40
2005,09,20,12,30,15.40
2005,09,20,12,31,15.50
2005,09,20,12,32,15.50
2005,09,20,12,33,15.60
2005,09,20,12,34,15.70
2005,09,20,12,35,15.80
2005,09,20,12,36,16.00
2005,09,20,12,37,16.20
2005,09,20,12,38,16.30
2005,09,20,12,39,16.50
2005,09,20,12,40,16.70
2005,09,20,12,41,16.70
2005,09,20,12,42,16.60
2005,09,20,12,43,16.40
2005,09,20,12,44,16.30
2005,09,20,12,45,16.20
2005,09,20,12,46,16.10
2005,09,20,12,47,16.20
2005,09,20,12,48,16.10
2005,09,20,12,49,16.10
2005,09,20,12,50,16.10
2005,09,20,12,51,16.20
2005,09,20,12,52,16.30
2005,09,20,12,53,16.40
2005,09,20,12,54,16.50
2005,09,20,12,55,16.40
2005,09,20,12,56,16.40
2005,09,20,12,57,16.40
2005,09,20,12,58,16.40
2005,09,20,12,59,16.20
2005,09,20,13,00,16.10
2005,09,20,13,01,16.10
2005,09,20,13,02,16.00
2005,09,20,13,03,15.90
2005,09,20,13,04,15.90
2005,09,20,13,05,15.90
2005,09,20,13,06,16.00
2005,09,20,13,07,16.10
2005,09,20,13,08,16.10
2005,09,20,13,09,16.20
2005,09,20,13,10,16.30
2005,09,20,13,11,16.30
2005,09,20,13,12,16.30
2005,09,20,13,13,16.30
2005,09,20,13,14,16.20
2005,09,20,13,15,16.20
2005,09,20,13,16,16.20
2005,09,20,13,17,16.20
2005,09,20,13,18,16.10
2005,09,20,13,19,16.20
2005,09,20,13,20,16.30
2005,09,20,13,21,16.40
2005,09,20,13,22,16.40
2005,09,20,13,23,16.50
2005,09,20,13,24,16.60
2005,09,20,13,25,16.60
2005,09,20,13,26,16.50
2005,09,20,13,27,16.40
2005,09,20,13,28,16.40
2005,09,20,13,29,16.30
2005,09,20,13,30,16.20
2005,09,20,13,31,16.30
2005,09,20,13,32,16.40
2005,09,20,13,33,16.50
2005,09,20,13,34,16.60
2005,09,20,13,35,16.70
2005,09,20,13,36,16.70
2005,09,20,13,37,16.70
2005,09,20,13,38,16.70
2005,09,20,13,39,16.70
2005,09,20,13,40,16.80
2005,09,20,13,41,16.80
2005,09,20,13,42,16.90
2005,09,20,13,43,16.80
2005,09,20,13,44,16.80
2005,09,20,13,45,16.80
2005,09,20,13,46,16.90
2005,09,20,13,47,17.00
2005,09,20,13,48,17.30
2005,09,20,13,49,17.30
2005,09,20,13,50,17.30
2005,09,20,13,51,17.30
2005,09,20,13,52,17.40
2005,09,20,13,53,17.50
2005,09,20,13,54,17.60
2005,09,20,13,55,17.50
2005,09,20,13,56,17.60
2005,09,20,13,57,17.60
2005,09,20,13,58,17.50
2005,09,20,13,59,17.60
2005,09,20,14,00,17.70
2005,09,20,14,01,17.70
2005,09,20,14,02,17.80
2005,09,20,14,03,17.70
2005,09,20,14,04,17.60
2005,09,20,14,05,17.50
2005,09,20,14,06,17.40
2005,09,20,14,07,17.50
2005,09,20,14,08,17.60
2005,09,20,14,09,17.80
2005,09,20,14,10,17.80
2005,09,20,14,11,17.90
2005,09,20,14,12,17.90
2005,09,20,14,13,18.00
2005,09,20,14,14,17.90
2005,09,20,14,15,17.90
2005,09,20,14,16,17.80
2005,09,20,14,17,17.70
2005,09,20,14,18,17.60
2005,09,20,14,19,17.40
2005,09,20,14,20,17.40
2005,09,20,14,21,17.50
2005,09,20,14,22,17.50
2005,09,20,14,23,17.40
2005,09,20,14,24,17.30
2005,09,20,14,25,17.30
2005,09,20,14,26,17.30
2005,09,20,14,27,17.40
2005,09,20,14,28,17.50
2005,09,20,14,29,17.70
2005,09,20,14,30,17.80
2005,09,20,14,31,17.90
2005,09,20,14,32,17.90
2005,09,20,14,33,18.00
2005,09,20,14,34,18.10
2005,09,20,14,35,18.20
2005,09,20,14,36,18.10
2005,09,20,14,37,18.00
2005,09,20,14,38,18.10
2005,09,20,14,39,18.10
2005,09,20,14,40,17.90
2005,09,20,14,41,17.70
2005,09,20,14,42,17.50
2005,09,20,14,43,17.40
2005,09,20,14,44,17.30
2005,09,20,14,45,17.20
2005,09,20,14,46,17.10
2005,09,20,14,47,17.00
2005,09,20,14,48,17.00
2005,09,20,14,49,17.00
2005,09,20,14,50,17.00
2005,09,20,14,51,17.10
2005,09,20,14,52,17.30
2005,09,20,14,53,17.30
2005,09,20,14,54,17.20
2005,09,20,14,55,17.20
2005,09,20,14,56,17.30
2005,09,20,14,57,17.40
2005,09,20,14,58,17.40
2005,09,20,14,59,17.50
2005,09,20,15,00,17.60
2005,09,20,15,01,17.70
2005,09,20,15,02,17.80
2005,09,20,15,03,17.80
2005,09,20,15,04,17.70
2005,09,20,15,05,17.70
2005,09,20,15,06,17.50
2005,09,20,15,07,17.30
2005,09,20,15,08,17.20
2005,09,20,15,09,17.30
2005,09,20,15,10,17.30
2005,09,20,15,11,17.30
2005,09,20,15,12,17.40
2005,09,20,15,13,17.50
2005,09,20,15,14,17.60
2005,09,20,15,15,17.70
2005,09,20,15,16,17.70
2005,09,20,15,17,17.60
2005,09,20,15,18,17.60
2005,09,20,15,19,17.50
2005,09,20,15,20,17.40
2005,09,20,15,21,17.40
2005,09,20,15,22,17.30
2005,09,20,15,23,17.30
2005,09,20,15,24,17.30
2005,09,20,15,25,17.30
2005,09,20,15,26,17.20
2005,09,20,15,27,17.10
2005,09,20,15,28,17.00
2005,09,20,15,29,17.00
2005,09,20,15,30,17.10
2005,09,20,15,31,17.10
2005,09,20,15,32,17.10
2005,09,20,15,33,17.10
2005,09,20,15,34,17.10
2005,09,20,15,35,17.20
2005,09,20,15,36,17.30
2005,09,20,15,37,17.50
2005,09,20,15,38,17.60
2005,09,20,15,39,17.80
2005,09,20,15,40,17.80
2005,09,20,15,41,17.90
2005,09,20,15,42,17.90
2005,09,20,15,43,17.90
2005,09,20,15,44,17.90
2005,09,20,15,45,17.90
2005,09,20,15,46,17.80
2005,09,20,15,47,17.80
2005,09,20,15,48,17.80
2005,09,20,15,49,17.80
2005,09,20,15,50,17.90
2005,09,20,15,51,17.90
2005,09,20,15,52,17.90
2005,09,20,15,53,17.90
2005,09,20,15,54,17.90
2005,09,20,15,55,17.80
2005,09,20,15,56,17.70
2005,09,20,15,57,17.70
2005,09,20,15,58,17.60
2005,09,20,15,59,17.50
2005,09,20,16,00,17.50
2005,09,20,16,01,17.50
2005,09,20,16,02,17.60
2005,09,20,16,03,17.60
2005,09,20,16,04,17.70
2005,09,20,16,05,17.80
2005,09,20,16,06,17.80
2005,09,20,16,07,17.90
2005,09,20,16,08,18.10
2005,09,20,16,09,18.20
2005,09,20,16,10,18.20
2005,09,20,16,11,18.20
2005,09,20,16,12,18.20
2005,09,20,16,13,18.20
2005,09,20,16,14,18.10
2005,09,20,16,15,17.90
2005,09,20,16,16,17.90
2005,09,20,16,17,17.90
2005,09,20,16,18,17.90
2005,09,20,16,19,17.90
2005,09,20,16,20,17.90
2005,09,20,16,21,17.90
2005,09,20,16,22,17.90
2005,09,20,16,23,17.90
2005,09,20,16,24,17.90
2005,09,20,16,25,17.90
2005,09,20,16,26,17.90
2005,09,20,16,27,17.90
2005,09,20,16,28,17.90
2005,09,20,16,29,17.90
2005,09,20,16,30,17.90
2005,09,20,16,31,17.90
2005,09,20,16,32,18.00
2005,09,20,16,33,18.10
2005,09,20,16,34,18.10
2005,09,20,16,35,18.20
2005,09,20,16,36,18.20
2005,09,20,16,37,18.20
2005,09,20,16,38,18.10
2005,09,20,16,39,18.10
2005,09,20,16,40,18.00
2005,09,20,16,41,17.90
2005,09,20,16,42,17.80
2005,09,20,16,43,17.70
2005,09,20,16,44,17.60
2005,09,20,16,45,17.50
2005,09,20,16,46,17.50
2005,09,20,16,47,17.40
2005,09,20,16,48,17.50
2005,09,20,16,49,17.50
2005,09,20,16,50,17.50
2005,09,20,16,51,17.50
2005,09,20,16,52,17.50
2005,09,20,16,53,17.50
2005,09,20,16,54,17.50
2005,09,20,16,55,17.60
2005,09,20,16,56,17.50
2005,09,20,16,57,17.50
2005,09,20,16,58,17.40
2005,09,20,16,59,17.40
2005,09,20,17,00,17.40
2005,09,20,17,01,17.40
2005,09,20,17,02,17.40
2005,09,20,17,03,17.50
2005,09,20,17,04,17.50
2005,09,20,17,05,17.50
2005,09,20,17,06,17.60
2005,09,20,17,07,17.60
2005,09,20,17,08,17.50
2005,09,20,17,09,17.60
2005,09,20,17,10,17.60
2005,09,20,17,11,17.60
2005,09,20,17,12,17.70
2005,09,20,17,13,17.70
2005,09,20,17,14,17.70
2005,09,20,17,15,17.70
2005,09,20,17,16,17.70
2005,09,20,17,17,17.80
2005,09,20,17,18,17.80
2005,09,20,17,19,17.90
2005,09,20,17,20,17.80
2005,09,20,17,21,17.80
2005,09,20,17,22,17.70
2005,09,20,17,23,17.70
2005,09,20,17,24,17.70
2005,09,20,17,25,17.70
2005,09,20,17,26,17.70
2005,09,20,17,27,17.70
2005,09,20,17,28,17.70